Flag for China Weather past 2 weeks in Shenyang, Liaoning, China

Now
72 °F

Fog.


Feels Like: 69 °F
Forecast: 69 / 84 °F
Wind: 3 mph from Southeast

Location: Shenyang / Taoxian

Current Time: Aug 23, 2014 at 2:41:06 AM

Latest Report: Aug 23, 2014 at 2:00 AM


Visibility: 2 mi

Pressure: 29.71 "Hg

Humidity: 88%

Dew point: 68 °F

Location of ShenyangLocation

Historic Weather in Shenyang — Graph

°F

Shenyang temperature yesterday

Maximum temperature yesterday: 88 °F (at 3:00 PM)
Minimum temperature yesterday: 68 °F (at 2:30 AM)
Average temperature yesterday: 77 °F

Past Weeks' High & Low Weather Summary

 TemperatureHumidityPressure
High91 °F (Aug 20, 2:00 PM)100% (Aug 11, 2:30 AM)29.92 "Hg (Aug 11, 2:30 AM)
Low59 °F (Aug 13, 5:00 AM)21% (Aug 8, 2:30 PM)29.56 "Hg (Aug 10, 2:30 PM)
Average75 °F71%29.76 "Hg
* Reported Aug 8 1:00 AM — Aug 23 1:30 AM, Shenyang, Weather by CustomWeather, © 2014

Note: Actual official high and low records may vary slightly from our data, if they occured in-between our weather recording intervals... More about our weather records

Advertising

Shenyang weather history for previous 24 hours

 ConditionsComfort  
Time TempWeatherWind HumidityBarometerVisibility
1:30 AM
Aug 23
72 °FFog.3 mph88%29.74 "Hg2 mi
1:00 AM72 °FFog.3 mph88%29.74 "Hg2 mi
12:30 AM72 °FFog.3 mph88%29.74 "Hg2 mi
12:00 AM72 °FFog.3 mph88%29.74 "Hg2 mi
11:30 PM
Aug 22
73 °FFog.3 mph83%29.74 "Hg2 mi
11:00 PM73 °FFog.3 mph83%29.74 "Hg2 mi
10:30 PM72 °FFog.3 mph94%29.74 "Hg2 mi
10:00 PM72 °FFog.3 mph94%29.71 "Hg2 mi
9:30 PM73 °FFog.6 mph89%29.71 "Hg2 mi
9:00 PM73 °FFog.1 mph89%29.71 "Hg2 mi
8:30 PM73 °FFog.No wind89%29.71 "Hg2 mi
8:00 PM75 °FFog.No wind83%29.71 "Hg2 mi
7:30 PM75 °FFog.1 mph89%29.71 "Hg2 mi
7:00 PM77 °FFog.1 mph83%29.71 "Hg2 mi
6:30 PM81 °FClear.3 mph70%29.71 "Hg4 mi
6:00 PM82 °FClear.1 mph62%29.71 "Hg4 mi
5:30 PM84 °FClear.3 mph58%29.71 "Hg4 mi
5:00 PM86 °FClear.3 mph52%29.71 "Hg4 mi
4:30 PM88 °FClear.3 mph40%29.71 "Hg5 mi
4:00 PM88 °FClear.3 mph43%29.68 "Hg4 mi
3:30 PM86 °FClear.3 mph52%29.71 "Hg4 mi
3:00 PM88 °FClear.3 mph49%29.71 "Hg4 mi
2:30 PM86 °FClear.1 mph59%29.71 "Hg4 mi
2:00 PM86 °FFog.3 mph55%29.74 "Hg3 mi
1:30 PM86 °FFog.1 mph62%29.74 "Hg2 mi
1:00 PM84 °FFog.3 mph62%29.74 "Hg2 mi
12:30 PM84 °FFog.3 mph66%29.74 "Hg2 mi
12:00 PM82 °FFog.3 mph66%29.77 "Hg2 mi
11:30 AM82 °FFog.3 mph70%29.77 "Hg2 mi
11:00 AM82 °FFog.6 mph70%29.77 "Hg2 mi
10:30 AM81 °FFog.3 mph74%29.77 "Hg1 mi
10:00 AM79 °FFog.3 mph79%29.80 "Hg1 mi
9:30 AM77 °FFog.3 mph89%29.80 "Hg1 mi
9:00 AM77 °FFog.3 mph89%29.80 "Hg1 mi
8:30 AM77 °FFog.3 mph83%29.80 "Hg1 mi
8:00 AM75 °FFog.1 mph94%29.77 "Hg1 mi
7:30 AM75 °FFog.1 mph89%29.77 "Hg1 mi
7:00 AM73 °FFog.No wind94%29.77 "Hg1 mi
6:30 AM72 °FFog.3 mph94%29.77 "Hg1 mi
6:00 AM72 °FFog.3 mph94%29.77 "Hg1 mi
5:30 AM70 °FFog.3 mph100%29.77 "Hg1 mi
5:00 AM70 °FFog.3 mph94%29.77 "Hg1 mi
4:30 AM70 °FFog.3 mph94%29.77 "Hg1 mi
4:00 AM70 °FFog.3 mph94%29.77 "Hg1 mi
3:30 AM70 °FFog.3 mph100%29.77 "Hg1 mi
3:00 AM70 °FFog.3 mph100%29.77 "Hg1 mi
2:30 AM68 °FFog.1 mph100%29.77 "Hg1 mi
2:00 AM70 °FFog.3 mph94%29.77 "Hg1 mi
Weather by CustomWeather, © 2014

See weather overviewHow to use our weather pages